Location: Oteiza
(42.6167°N, 1.9500°W)
Time: 10:22:11
(UTC+01:00)

ISS - Visible Passes

Search period start: 16 November 2018 00:00
Search period end: 26 November 2018 00:00
Orbit: 401 x 408 km, 51.6° (Epoch: 16 November)

Date Brightness Start Highest point End Pass type
(mag) Time Alt. Az. Time Alt. Az. Time Alt. Az.
16 Nov -1.0 05:38:44 14° SSE 05:38:44 14° SSE 05:39:15 10° SE visible
22 Nov -0.6 20:13:02 10° SW 20:13:09 11° SW 20:13:09 11° SW visible
23 Nov -2.4 19:21:17 10° SSW 19:23:28 26° SSE 19:23:28 26° SSE visible
24 Nov -1.8 18:30:06 10° S 18:32:07 16° SE 18:33:40 12° E visible
24 Nov -1.3 20:05:02 10° WSW 20:06:21 22° WSW 20:06:21 22° WSW visible
25 Nov -3.9 19:12:50 10° SW 19:16:03 69° SE 19:16:28 59° E visible
